Salem, OR

9:40 AM PDT on April 22, 2018 (GMT -0700)
McNary

Weather History for KSLE - June, 2013

Change the Weather History Date:

Sunday, June 30, 2013

  Actual Average Record
Temperature  
Mean Temperature 78 °F 65 °F  
Max Temperature 96 °F 78 °F 102 °F (1942)
Min Temperature 60 °F 51 °F 39 °F (1961)
Degree Days  
Heating Degree Days 0 2  
Month to date heating degree days 79 129  
Since 1 June heating degree days 79 130  
Since 1 July heating degree days 4279 4653  
Cooling Degree Days 13 2  
Month to date cooling degree days 53 28  
Year to date cooling degree days 63 37  
Since 1 June cooling degree days 53 28  
Growing Degree Days 28 (Base 50)    
Moisture  
Dew Point 61 °F    
Average Humidity 63    
Maximum Humidity 93    
Minimum Humidity 32    
Precipitation  
Precipitation 0.00 in 0.03 in 0.62 in (1976)
Month to date precipitation 1.02 1.55  
Year to date precipitation 11.61 21.09  
Snow  
Snow 0.00 in - - ()
Month to date snowfall 0.0  
Since 1 June snowfall 0.0  
Snow Depth 0.00 in    
Sea Level Pressure  
Sea Level Pressure 29.90 in    
Wind  
Wind Speed 3 mph (WNW)    
Max Wind Speed 15 mph    
Max Gust Speed 20 mph    
Visibility 10 miles    
Events      
T = Trace of Precipitation, MM = Missing Value Source: NWS Daily Summary

Daily Weather History Graph

Daily Weather History Graph

Search for Another Location

Airport or City:

Astronomy

Jun. 30, 2013 Rise Set
Actual Time 5:29 AM PDT 9:02 PM PDT
Civil Twilight 4:52 AM PDT 9:39 PM PDT
Nautical Twilight 4:02 AM PDT 10:28 PM PDT
Astronomical Twilight 2:58 AM PDT 11:32 PM PDT
Moon 12:43 AM PDT (6/30) 2:11 PM PDT (6/30)
Length of Visible Light 16h 47m
Length of Day
15h 32m
Last Quarter, 44% of the Moon is Illuminated
Jun 30
Last Quarter
Jul 8
New
Jul 15
First Quarter
Jul 22
Full
Jul 29
Last Quarter

Hourly Weather History & Observations

Time (PDT) Temp. Heat Index Dew Point Humidity Pressure Visibility Wind Dir Wind Speed Gust Speed Precip Events Conditions
12:56 AM 66.9 °F - 61.0 °F 81% 29.96 in 10.0 mi Calm Calm - N/A   Clear
1:56 AM 66.0 °F - 61.0 °F 84% 29.96 in 10.0 mi Calm Calm - N/A   Clear
2:56 AM 63.0 °F - 60.1 °F 90% 29.95 in 10.0 mi Calm Calm - N/A   Clear
3:56 AM 64.0 °F - 60.1 °F 87% 29.94 in 10.0 mi Calm Calm - N/A   Clear
4:56 AM 62.1 °F - 60.1 °F 93% 29.94 in 10.0 mi SSE 3.5 mph - N/A   Clear
5:56 AM 62.1 °F - 59.0 °F 90% 29.95 in 10.0 mi WSW 3.5 mph - N/A   Clear
6:56 AM 69.1 °F - 61.0 °F 75% 29.94 in 10.0 mi NNW 3.5 mph - N/A   Clear
7:56 AM 73.0 °F - 61.0 °F 66% 29.94 in 10.0 mi NNE 4.6 mph - N/A   Clear
8:56 AM 75.0 °F - 61.0 °F 62% 29.94 in 10.0 mi Calm Calm - N/A   Clear
9:56 AM 78.1 °F - 62.1 °F 58% 29.94 in 10.0 mi Calm Calm - N/A   Clear
10:56 AM 82.0 °F 83.0 °F 62.1 °F 51% 29.92 in 10.0 mi Calm Calm - N/A   Clear
11:56 AM 84.0 °F 84.0 °F 60.1 °F 44% 29.91 in 10.0 mi Variable 5.8 mph - N/A   Clear
12:56 PM 88.0 °F 87.1 °F 59.0 °F 37% 29.89 in 10.0 mi Variable 6.9 mph - N/A   Clear
1:56 PM 91.0 °F 90.5 °F 60.1 °F 35% 29.87 in 10.0 mi Variable 4.6 mph - N/A   Clear
2:56 PM 91.9 °F 90.8 °F 57.9 °F 32% 29.86 in 10.0 mi Variable 6.9 mph - N/A   Clear
3:56 PM 93.9 °F 93.6 °F 60.1 °F 32% 29.85 in 10.0 mi Calm Calm - N/A   Clear
4:56 PM 93.9 °F 93.6 °F 60.1 °F 32% 29.84 in 10.0 mi Variable 3.5 mph - N/A   Clear
5:56 PM 93.9 °F 96.1 °F 64.9 °F 38% 29.83 in 10.0 mi NNW 11.5 mph - N/A   Clear
6:56 PM 88.0 °F 88.7 °F 63.0 °F 43% 29.84 in 10.0 mi West 11.5 mph 19.6 mph N/A   Clear
7:56 PM 82.9 °F 83.7 °F 62.1 °F 49% 29.85 in 10.0 mi West 8.1 mph - N/A   Clear
8:56 PM 79.0 °F - 61.0 °F 54% 29.86 in 10.0 mi West 10.4 mph - N/A   Clear
9:56 PM 77.0 °F - 60.1 °F 56% 29.88 in 10.0 mi Calm Calm - N/A   Partly Cloudy
10:56 PM 75.0 °F - 59.0 °F 57% 29.90 in 10.0 mi WSW 3.5 mph - N/A   Partly Cloudy
11:56 PM 73.9 °F - 59.0 °F 59% 29.90 in 10.0 mi West 3.5 mph - N/A   Clear